Westminster, MD

11:05 PM EST on November 13, 2019 (GMT -0500)
Carroll County Regional-Poage

Weather History for KDMW - September, 2019

Change the Weather History Date:

Sunday, September 29, 2019

  Actual Average (WUND) Record (WUND)
Temperature  
Mean Temperature 76 °F -  
Max Temperature 82 °F - - (-1)
Min Temperature 69 °F - - (-1)
Cooling Degree Days 10    
Growing Degree Days 26 (Base 50)    
Moisture  
Dew Point 66 °F    
Average Humidity 75    
Maximum Humidity 94    
Minimum Humidity 54    
Precipitation  
Precipitation 0.00 in - - ()
Sea Level Pressure  
Sea Level Pressure 30.22 in    
Wind  
Wind Speed 3 mph (NNE)    
Max Wind Speed 9 mph    
Max Gust Speed -    
Visibility 10 miles    
Events      
Averages and records for this station are not official NWS values.
T = Trace of Precipitation, MM = Missing Value Source: NWS Daily Summary

Daily Weather History Graph

Daily Weather History Graph

Search for Another Location

Airport or City:

Astronomy

Sep. 29, 2019 Rise Set
Actual Time 7:02 AM EDT 6:54 PM EDT
Civil Twilight 6:35 AM EDT 7:20 PM EDT
Nautical Twilight 6:03 AM EDT 7:52 PM EDT
Astronomical Twilight 5:32 AM EDT 8:23 PM EDT
Moon 7:50 AM EDT (9/29) 7:53 PM EDT (9/29)
Length of Visible Light 12h 45m
Length of Day
11h 52m
New Moon, 1% of the Moon is Illuminated
Sep 29
New Moon
Oct 5
First Quarter
Oct 13
Full
Oct 21
Last Quarter
Oct 27
New

Hourly Weather History & Observations

Time (EDT) Temp. Heat Index Dew Point Humidity Pressure Visibility Wind Dir Wind Speed Gust Speed Precip Events Conditions
12:00 AM 75.2 °F - 69.8 °F 83% 30.13 in 10.0 mi Calm Calm - N/A   Clear
12:20 AM 73.4 °F - 69.8 °F 88% 30.13 in 10.0 mi Calm Calm - N/A   Clear
12:40 AM 73.4 °F - 69.8 °F 88% 30.13 in 10.0 mi Calm Calm - N/A   Clear
1:00 AM 71.6 °F - 69.8 °F 94% 30.13 in 10.0 mi Calm Calm - N/A   Clear
1:20 AM 73.4 °F - 69.8 °F 88% 30.14 in 10.0 mi Calm Calm - N/A   Clear
1:40 AM 71.6 °F - 69.8 °F 94% 30.14 in 10.0 mi Calm Calm - N/A   Clear
2:00 AM 71.6 °F - 69.8 °F 94% 30.14 in 10.0 mi Calm Calm - N/A   Clear
2:20 AM 71.6 °F - 68.0 °F 88% 30.14 in 10.0 mi Calm Calm - N/A   Clear
2:40 AM 71.6 °F - 68.0 °F 88% 30.14 in 10.0 mi Calm Calm - N/A   Clear
3:00 AM 71.6 °F - 69.8 °F 94% 30.15 in 10.0 mi NW 3.5 mph - N/A   Clear
3:20 AM 71.6 °F - 69.8 °F 94% 30.15 in 10.0 mi Calm Calm - N/A   Clear
3:40 AM 69.8 °F - 68.0 °F 94% 30.16 in 7.0 mi Calm Calm - N/A   Clear
4:00 AM 71.6 °F - 69.8 °F 94% 30.16 in 7.0 mi NW 4.6 mph - N/A   Clear
4:20 AM 71.6 °F - 69.8 °F 94% 30.17 in 7.0 mi Calm Calm - N/A   Clear
4:40 AM 69.8 °F - 68.0 °F 94% 30.17 in 5.0 mi North 3.5 mph - N/A   Clear
5:00 AM 69.8 °F - 68.0 °F 94% 30.17 in 5.0 mi Calm Calm - N/A   Clear
5:20 AM 69.8 °F - 68.0 °F 94% 30.18 in 7.0 mi North 3.5 mph - N/A   Clear
5:40 AM 69.8 °F - 68.0 °F 94% 30.18 in 10.0 mi North 4.6 mph - N/A   Clear
6:00 AM 69.8 °F - 66.2 °F 88% 30.19 in 10.0 mi NNE 3.5 mph - N/A   Clear
6:20 AM 69.8 °F - 66.2 °F 88% 30.19 in 10.0 mi North 4.6 mph - N/A   Clear
6:40 AM 69.8 °F - 66.2 °F 88% 30.20 in 10.0 mi North 4.6 mph - N/A   Clear
7:00 AM 69.8 °F - 66.2 °F 88% 30.21 in 10.0 mi North 5.8 mph - N/A   Clear
7:20 AM 69.8 °F - 66.2 °F 88% 30.22 in 10.0 mi NNE 3.5 mph - N/A   Clear
7:40 AM 69.8 °F - 66.2 °F 88% 30.22 in 10.0 mi NNE 3.5 mph - N/A   Clear
8:00 AM 69.8 °F - 66.2 °F 88% 30.22 in 10.0 mi North 4.6 mph - N/A   Clear
8:20 AM 71.6 °F - 66.2 °F 83% 30.23 in 10.0 mi North 5.8 mph - N/A   Clear
8:40 AM 73.4 °F - 66.2 °F 78% 30.23 in 10.0 mi NNE 9.2 mph - N/A   Clear
9:00 AM 73.4 °F - 66.2 °F 78% 30.24 in 10.0 mi NE 8.1 mph - N/A   Clear
9:20 AM 73.4 °F - 66.2 °F 78% 30.25 in 10.0 mi NNE 5.8 mph - N/A   Clear
9:40 AM 75.2 °F - 66.2 °F 73% 30.26 in 10.0 mi NNE 6.9 mph - N/A   Clear
10:00 AM 75.2 °F - 66.2 °F 73% 30.27 in 10.0 mi NE 9.2 mph - N/A   Clear
10:20 AM 75.2 °F - 66.2 °F 73% 30.27 in 10.0 mi NNE 6.9 mph - N/A   Clear
10:40 AM 75.2 °F - 66.2 °F 73% 30.28 in 10.0 mi NNE 9.2 mph - N/A   Clear
11:00 AM 77.0 °F - 66.2 °F 69% 30.28 in 10.0 mi NNE 6.9 mph - N/A   Clear
11:20 AM 77.0 °F - 66.2 °F 69% 30.28 in 10.0 mi NNE 8.1 mph - N/A   Clear
11:40 AM 78.8 °F - 66.2 °F 65% 30.28 in 10.0 mi NNE 8.1 mph - N/A   Scattered Clouds
12:00 PM 78.8 °F - 66.2 °F 65% 30.28 in 10.0 mi NE 6.9 mph - N/A   Clear
12:20 PM 78.8 °F - 66.2 °F 65% 30.28 in 10.0 mi NNE 8.1 mph - N/A   Scattered Clouds
12:40 PM 78.8 °F - 64.4 °F 61% 30.27 in 10.0 mi North 8.1 mph - N/A   Scattered Clouds
1:00 PM 78.8 °F - 64.4 °F 61% 30.27 in 10.0 mi NNE 9.2 mph - N/A   Scattered Clouds
1:20 PM 78.8 °F - 64.4 °F 61% 30.26 in 10.0 mi North 5.8 mph - N/A   Scattered Clouds
1:40 PM 80.6 °F 82.3 °F 64.4 °F 58% 30.26 in 10.0 mi NNE 4.6 mph - N/A   Scattered Clouds
2:00 PM 80.6 °F 82.3 °F 64.4 °F 58% 30.26 in 10.0 mi North 5.8 mph - N/A   Scattered Clouds
2:40 PM 80.6 °F 82.3 °F 64.4 °F 58% 30.25 in 10.0 mi North 6.9 mph - N/A   Scattered Clouds
3:00 PM 82.4 °F 83.9 °F 64.4 °F 54% 30.24 in 10.0 mi North 3.5 mph - N/A   Clear
3:20 PM 80.6 °F 82.3 °F 64.4 °F 58% 30.24 in 10.0 mi ENE 4.6 mph - N/A   Scattered Clouds
3:40 PM 82.4 °F 83.9 °F 64.4 °F 54% 30.24 in 10.0 mi NNE 4.6 mph - N/A   Clear
4:00 PM 82.4 °F 83.9 °F 64.4 °F 54% 30.24 in 10.0 mi NE 6.9 mph - N/A   Scattered Clouds
4:20 PM 80.6 °F 82.3 °F 64.4 °F 58% 30.24 in 10.0 mi North 5.8 mph - N/A   Scattered Clouds
4:40 PM 82.4 °F 83.9 °F 64.4 °F 54% 30.24 in 10.0 mi North 6.9 mph - N/A   Clear
5:00 PM 80.6 °F 82.3 °F 64.4 °F 58% 30.24 in 10.0 mi NE 5.8 mph - N/A   Clear
5:20 PM 80.6 °F 82.3 °F 64.4 °F 58% 30.24 in 10.0 mi NE 9.2 mph - N/A   Clear
5:40 PM 78.8 °F - 64.4 °F 61% 30.25 in 10.0 mi NNE 6.9 mph - N/A   Clear
6:20 PM 75.2 °F - 62.6 °F 65% 30.25 in 10.0 mi NNE 4.6 mph - N/A   Clear
6:40 PM 75.2 °F - 62.6 °F 65% 30.24 in 10.0 mi NE 4.6 mph - N/A   Clear
7:00 PM 75.2 °F - 62.6 °F 65% 30.24 in 10.0 mi North 3.5 mph - N/A   Clear
7:20 PM 73.4 °F - 62.6 °F 69% 30.24 in 10.0 mi Calm Calm - N/A   Clear
7:40 PM 73.4 °F - 62.6 °F 69% 30.24 in 10.0 mi NE 3.5 mph - N/A   Clear
8:00 PM 73.4 °F - 62.6 °F 69% 30.24 in 10.0 mi Calm Calm - N/A   Clear
8:20 PM 73.4 °F - 62.6 °F 69% 30.25 in 10.0 mi Calm Calm - N/A   Clear
8:40 PM 71.6 °F - 62.6 °F 73% 30.25 in 10.0 mi NE 3.5 mph - N/A   Clear
9:00 PM 71.6 °F - 62.6 °F 73% 30.26 in 10.0 mi NNE 3.5 mph - N/A   Clear
9:20 PM 71.6 °F - 62.6 °F 73% 30.26 in 10.0 mi Calm Calm - N/A   Clear
9:40 PM 71.6 °F - 62.6 °F 73% 30.27 in 10.0 mi Calm Calm - N/A   Clear
10:00 PM 71.6 °F - 62.6 °F 73% 30.27 in 10.0 mi Calm Calm - N/A   Clear
10:20 PM 71.6 °F - 62.6 °F 73% 30.28 in 10.0 mi Calm Calm - N/A   Clear
10:40 PM 71.6 °F - 62.6 °F 73% 30.28 in 10.0 mi Calm Calm - N/A   Clear
11:00 PM 71.6 °F - 62.6 °F 73% 30.28 in 10.0 mi Calm Calm - N/A   Clear
11:20 PM 71.6 °F - 62.6 °F 73% 30.28 in 10.0 mi Calm Calm - N/A   Clear
11:40 PM 71.6 °F - 62.6 °F 73% 30.27 in 10.0 mi Calm Calm - N/A   Clear